Eastsound, WA
on Thursday, January 31, 2013

Thursday
Previous Day Next Day
Daily Summary
 ActualAverage (KBLI)Record (KBLI)
Temperature
Mean Temperature °F 40°F  
Max Temperature 46°F 47°F 60°F (1992)
Min Temperature 41°F 33°F 0°F (1950)
Degree Days
Heating Degree Days 22 25  
Month to date heating degree days 798  
Cooling Degree Days 0 0  
Month to date cooling degree days 0  
Year to date cooling degree days 0  
Moisture
Dew Point 44°F   
Average Humidity 97    
Maximum Humidity 100    
Minimum Humidity 93    
Precipitation
Precipitation 0.00 in 0.14 in 1.15 in (1995)
Month to date precipitation 4.67  
Year to date precipitation 4.67  
Wind
Wind Speed 5 mph   
Max Wind Speed 15 mph   
Max Gust Speed 22 mph   
Visibility 7 miles   
Events Fog , Rain   

Key: T is trace of precipitation, MM is missing value
Source: NWS Daily Summary
Time(PST)TemperatureDew PointHumidity Pressure Visibility Wind DirectionWind SpeedGust SpeedPrecipitationEvents Conditions
12:15 AM 42.8°F 42.8°F 100% 30.33 in 1.5 miles Calm Calm - N/A   Overcast
12:35 AM 42.8°F 42.8°F 100% 30.34 in 1.2 miles Calm Calm - N/A   Overcast
12:55 AM 42.8°F 42.8°F 100% 30.34 in 1.0 miles Calm Calm - N/A Rain Light Rain
1:15 AM 42.8°F 42.8°F 100% 30.35 in 1.5 miles Calm Calm - N/A Rain Light Rain
1:35 AM 42.8°F 42.8°F 100% 30.35 in 0.8 miles Calm Calm - N/A   Overcast
1:55 AM 42.8°F 42.8°F 100% 30.34 in 2.0 miles NNW 3.5 mph - N/A   Overcast
2:15 AM 42.8°F 42.8°F 100% 30.35 in 2.0 miles Calm Calm - N/A Rain Light Rain
2:35 AM 42.8°F 42.8°F 100% 30.35 in 3.0 miles Calm Calm - N/A   Overcast
2:55 AM 42.8°F 42.8°F 100% 30.35 in 4.0 miles Calm Calm - N/A   Overcast
3:15 AM 42.8°F 42.8°F 100% 30.34 in 2.5 miles Calm Calm - N/A   Overcast
3:35 AM 42.8°F 42.8°F 100% 30.34 in 2.5 miles Calm Calm - N/A   Overcast
3:55 AM 41.0°F 41.0°F 100% 30.34 in 1.8 miles Calm Calm - N/A   Overcast
4:15 AM 41.0°F 41.0°F 100% 30.34 in 0.5 miles Calm Calm - N/A Fog Fog
4:55 AM 41.0°F 41.0°F 100% 30.34 in 0.2 miles Calm Calm - N/A Fog Fog
5:15 AM 41.0°F 41.0°F 100% 30.33 in 0.2 miles Calm Calm - N/A Fog Fog
5:35 AM 42.8°F 42.8°F 100% 30.32 in 8.0 miles SSE 4.6 mph - N/A   Mostly Cloudy
5:55 AM 44.6°F 44.6°F 100% 30.31 in 10.0 miles South 4.6 mph - N/A   Mostly Cloudy
6:15 AM 44.6°F 44.6°F 100% 30.32 in 10.0 miles South 8.1 mph - N/A   Scattered Clouds
6:35 AM 44.6°F 44.6°F 100% 30.32 in 10.0 miles SSW 10.4 mph - N/A   Partly Cloudy
6:55 AM 44.6°F 44.6°F 100% 30.32 in 10.0 miles SSW 9.2 mph - N/A Rain Light Rain
7:15 AM 44.6°F 44.6°F 100% 30.30 in 10.0 miles South 10.4 mph - N/A   Partly Cloudy
7:35 AM 44.6°F 44.6°F 100% 30.30 in 10.0 miles South 12.7 mph - N/A   Mostly Cloudy
7:55 AM 44.6°F 44.6°F 100% 30.30 in 10.0 miles South 11.5 mph - N/A Rain Light Rain
8:15 AM 46.4°F 46.4°F 100% 30.31 in 6.0 miles South 9.2 mph - N/A Rain Light Rain
8:35 AM 46.4°F 46.4°F 100% 30.31 in 7.0 miles South 5.8 mph - N/A Rain Light Rain
8:55 AM 46.4°F 46.4°F 100% 30.30 in 8.0 miles South 9.2 mph - N/A Rain Light Rain
9:15 AM 46.4°F 46.4°F 100% 30.30 in 10.0 miles South 6.9 mph - N/A   Overcast
9:35 AM 46.4°F 46.4°F 100% 30.30 in 10.0 miles South 6.9 mph - N/A   Overcast
9:55 AM 46.4°F 44.6°F 93% 30.30 in 10.0 miles South 5.8 mph - N/A   Overcast
10:15 AM 46.4°F 44.6°F 93% 30.30 in 10.0 miles South 5.8 mph - N/A   Overcast
10:35 AM 46.4°F 44.6°F 93% 30.30 in 5.0 miles South 4.6 mph - N/A Rain Light Rain
10:55 AM 46.4°F 46.4°F 100% 30.29 in 5.0 miles South 9.2 mph - N/A Rain Light Rain
11:15 AM 46.4°F 44.6°F 93% 30.29 in 8.0 miles SSW 15.0 mph - N/A   Overcast
11:35 AM 46.4°F 44.6°F 93% 30.29 in 10.0 miles South 12.7 mph 21.9 mph N/A   Overcast
11:55 AM 46.4°F 44.6°F 93% 30.28 in 10.0 miles SSW 10.4 mph - N/A   Overcast
12:15 PM 46.4°F 44.6°F 93% 30.28 in 10.0 miles South 12.7 mph 18.4 mph N/A   Overcast
12:35 PM 46.4°F 44.6°F 93% 30.28 in 9.0 miles South 12.7 mph 18.4 mph N/A   Overcast
12:55 PM 46.4°F 44.6°F 93% 30.27 in 7.0 miles South 9.2 mph - N/A Rain Light Rain
1:15 PM 46.4°F 44.6°F 93% 30.27 in 3.0 miles South 13.8 mph 18.4 mph N/A Rain Light Rain
1:35 PM 46.4°F 44.6°F 93% 30.27 in 1.2 miles SSW 10.4 mph - N/A Rain Light Rain
1:55 PM 46.4°F 46.4°F 100% 30.27 in 2.0 miles South 11.5 mph - N/A Rain Light Rain
2:15 PM 46.4°F 46.4°F 100% 30.27 in 7.0 miles SW 12.7 mph 19.6 mph N/A   Mostly Cloudy
2:35 PM 46.4°F 46.4°F 100% 30.26 in 9.0 miles SSW 12.7 mph - N/A   Mostly Cloudy
2:55 PM 46.4°F 46.4°F 100% 30.26 in 9.0 miles South 15.0 mph 19.6 mph N/A   Mostly Cloudy
3:15 PM 46.4°F 46.4°F 100% 30.26 in 9.0 miles SSW 11.5 mph - N/A   Overcast
3:35 PM 46.4°F 46.4°F 100% 30.26 in 10.0 miles SSW 12.7 mph - N/A   Overcast
3:55 PM 46.4°F 46.4°F 100% 30.26 in 10.0 miles SSW 13.8 mph - N/A   Overcast
4:15 PM 46.4°F 44.6°F 93% 30.26 in 10.0 miles SSW 11.5 mph - N/A   Mostly Cloudy
4:35 PM 46.4°F 44.6°F 93% 30.26 in 10.0 miles SSW 11.5 mph - N/A   Mostly Cloudy
4:55 PM 46.4°F 44.6°F 93% 30.26 in 10.0 miles SSW 12.7 mph 17.3 mph N/A   Scattered Clouds
5:15 PM 46.4°F 44.6°F 93% 30.26 in 10.0 miles SSW 11.5 mph - N/A   Partly Cloudy
5:35 PM 46.4°F 44.6°F 93% 30.26 in 10.0 miles SSW 12.7 mph - N/A   Partly Cloudy
5:55 PM 46.4°F 44.6°F 93% 30.26 in 10.0 miles South 10.4 mph - N/A   Partly Cloudy
6:15 PM 46.4°F 44.6°F 93% 30.26 in 10.0 miles SSW 12.7 mph - N/A   Partly Cloudy
6:35 PM 46.4°F 44.6°F 93% 30.26 in 10.0 miles SSW 11.5 mph 18.4 mph N/A   Mostly Cloudy
6:55 PM 46.4°F 44.6°F 93% 30.26 in 10.0 miles South 10.4 mph - N/A   Mostly Cloudy
7:15 PM 46.4°F 44.6°F 93% 30.27 in 10.0 miles South 8.1 mph - N/A   Mostly Cloudy
7:35 PM 46.4°F 44.6°F 93% 30.27 in 10.0 miles South 9.2 mph - N/A   Mostly Cloudy
7:55 PM 46.4°F 44.6°F 93% 30.27 in 10.0 miles South 8.1 mph - N/A   Overcast
8:15 PM 46.4°F 44.6°F 93% 30.28 in 10.0 miles South 8.1 mph - N/A   Overcast
8:35 PM 46.4°F 44.6°F 93% 30.28 in 10.0 miles SSW 11.5 mph - N/A   Overcast
8:55 PM 46.4°F 44.6°F 93% 30.27 in 10.0 miles SSW 11.5 mph - N/A   Overcast
9:35 PM 46.4°F 44.6°F 93% 30.29 in 10.0 miles South 5.8 mph - N/A   Overcast
9:55 PM 44.6°F 44.6°F 100% 30.30 in 10.0 miles South 3.5 mph - N/A   Scattered Clouds
10:15 PM 44.6°F 42.8°F 93% 30.30 in 10.0 miles SSW 3.5 mph - N/A   Mostly Cloudy
10:35 PM 44.6°F 44.6°F 100% 30.30 in 10.0 miles Calm Calm - N/A   Overcast
10:55 PM 44.6°F 44.6°F 100% 30.30 in 10.0 miles South 3.5 mph - N/A   Overcast
11:15 PM 44.6°F 44.6°F 100% 30.30 in 10.0 miles North - - N/A   Overcast
11:35 PM 44.6°F 44.6°F 100% 30.31 in 10.0 miles South 3.5 mph - N/A   Overcast
11:55 PM 44.6°F 44.6°F 100% 30.32 in 10.0 miles Calm Calm - N/A   Overcast
Moon Phase
Jan. 31 Feb. 03 Feb. 10 Feb. 17 Feb. 25
Sunrise:07:42 AM (PST) Moon Rise:10:48 PM (PST)1/31
Sunset:05:08 PM (PST) Moon Set:09:16 AM (PST)1/31

Copyright © 2014 The Weather Underground, Inc.